Simultaneous Nadir Overpasses (SNOs) Predictions

Prediction of SNOs between AURA and NPP Satellite Orbit:

Table of predicted SNOs for the next 14.0 days since TLE Epoch: 11/3/2012
Index Date (AURA) Time (AURA) AURA Lat,Lon Date (NPP) Time (NPP) NPP Lat,Lon Distance(km) Time Diff (sec)
1 11/05/2012 12:14:04 79.68,-105.52 11/05/2012 12:13:13 79.68,-105.55 0.57 51
2 11/05/2012 13:03:26 -79.86, 63.50 11/05/2012 13:03:53 -79.85, 63.38 2.71 27
3 11/08/2012 04:30:25 79.81, 11.32 11/08/2012 04:30:04 79.81, 11.42 2.16 21
4 11/08/2012 05:19:48 -79.95,-179.90 11/08/2012 05:20:45 -79.95,-179.91 0.26 57
5 11/10/2012 19:57:29 -79.63, -41.78 11/10/2012 19:56:22 -79.62, -41.85 1.61 67
6 11/10/2012 20:46:48 79.87, 127.73 11/10/2012 20:46:58 79.88, 127.81 1.48 10
7 11/13/2012 12:13:51 -79.71, 74.75 11/13/2012 12:13:15 -79.72, 74.77 0.41 36
8 11/13/2012 13:03:12 79.88,-116.29 11/13/2012 13:03:54 79.88,-116.42 2.61 42
9 11/16/2012 04:30:13 -79.78,-168.86 11/16/2012 04:30:09 -79.78,-168.92 1.15 4




NCC Satellite Simultaneous Nadir Overpasses (SNOs) Prediction Service
